Theta_e
343 335 331 332 333 333 334 336 336 337 337 336 335 333 329 325 320 314 314 313 313 314 316 316 315 318 322 327 329 330 331 333 335 336 336 336 335 336 337 338 338 338 338 338 337 337 337 336 336 336 335 336 336 335 335 331 330 324 318 325 331 331 332 333 335 335 336 336 336 336 336 337 336 336 336 336 335 334 334 334 334 334 334 333 333
344 336 331 331 331 332 334 336 337 337 337 336 335 334 330 325 320 314 313 314 313 314 317 316 315 319 323 327 331 333 335 336 337 337 338 337 336 336 337 338 338 338 338 337 337 336 336 335 334 333 334 335 335 335 334 332 330 321 319 325 328 330 332 333 334 335 335 335 335 335 335 335 336 336 335 335 334 334 333 333 332 332 332 332 332
345 337 332 331 331 332 334 336 337 337 337 336 335 334 330 324 319 314 313 314 313 315 317 317 316 319 324 328 331 334 337 337 337 337 338 338 337 336 337 338 338 337 336 336 335 334 332 328 324 322 323 326 331 334 334 333 326 320 325 329 329 330 332 333 333 333 333 334 335 335 335 336 336 335 334 334 333 333 333 332 331 330 330 330 330
345 336 331 331 331 333 335 336 337 337 337 336 335 334 330 324 319 313 313 314 313 315 317 317 316 319 324 329 331 334 337 337 337 337 338 338 339 338 338 338 337 336 335 333 330 327 322 316 312 311 312 314 321 329 333 331 322 322 330 329 330 331 332 332 332 332 332 331 333 334 335 335 336 335 334 332 332 332 332 331 330 328 328 327 326
344 335 330 330 331 333 335 336 337 338 337 336 335 334 330 323 319 314 313 314 313 315 317 318 317 320 325 329 331 334 337 337 337 337 338 339 339 338 338 337 336 335 333 328 321 317 312 310 309 308 309 308 311 316 324 324 317 324 331 330 331 332 332 333 333 335 332 330 331 332 332 330 332 335 333 330 330 331 331 331 330 328 326 325 324
342 333 330 329 331 333 335 336 337 337 337 336 335 334 330 324 319 314 313 314 313 314 317 318 318 321 325 330 331 333 336 336 337 337 338 339 338 338 337 336 334 332 327 318 311 310 309 309 309 308 308 307 308 308 313 313 314 327 332 330 331 331 332 332 333 334 333 331 329 330 330 325 326 332 331 329 329 330 331 331 330 327 324 323 322
342 333 329 329 331 333 335 336 336 337 336 336 335 334 330 324 319 313 313 314 313 314 316 318 319 321 326 330 331 333 335 336 336 337 337 337 337 337 335 333 330 326 320 311 308 310 309 309 308 308 307 307 307 307 309 308 316 329 330 329 329 330 332 333 332 333 334 332 330 330 327 319 319 325 328 329 330 330 330 330 328 324 323 322 320
342 333 329 330 331 332 335 336 336 336 336 335 335 334 330 323 318 313 312 314 313 313 315 318 319 321 325 329 331 333 334 335 336 336 336 335 335 334 332 330 326 321 315 310 309 310 309 309 308 308 307 308 307 308 307 308 320 329 329 329 330 331 333 333 332 332 332 331 330 326 319 313 316 322 326 329 329 329 328 327 324 322 321 320 318
338 332 330 331 331 332 334 335 335 335 335 335 335 334 329 322 317 312 312 314 314 313 315 317 320 321 324 328 331 333 334 335 335 335 334 332 331 330 328 325 320 315 312 309 309 310 309 309 308 308 308 308 307 308 307 312 323 329 330 331 331 331 333 333 332 330 330 329 327 322 315 313 319 324 328 329 327 327 326 325 324 321 319 316 314
335 330 331 331 331 331 333 334 334 334 334 334 334 333 328 321 315 311 312 313 314 314 314 317 320 321 323 327 330 333 334 334 335 334 332 329 326 324 321 317 313 310 310 310 310 309 309 309 308 308 308 308 308 308 310 316 325 327 329 329 328 329 330 331 331 331 330 329 326 321 318 315 317 325 328 328 325 324 323 324 322 318 316 314 312
336 333 332 332 331 331 332 332 332 332 332 332 333 332 326 319 313 310 311 313 313 314 314 316 319 321 323 326 329 332 333 334 334 332 330 327 325 324 319 313 310 310 310 310 310 310 310 310 309 308 308 308 308 310 316 323 327 328 329 329 330 330 329 328 328 329 328 326 323 318 316 312 314 322 326 327 323 319 318 319 317 314 313 312 311
340 337 332 332 331 330 330 330 330 329 329 329 330 330 325 317 311 310 311 312 313 314 314 315 317 319 322 324 326 329 331 331 332 331 328 326 325 325 321 315 311 311 311 310 310 310 311 311 311 310 308 308 312 318 325 329 331 331 331 331 332 331 330 330 328 327 324 321 319 314 312 310 314 320 322 325 323 317 314 313 312 312 311 310 310
343 341 334 332 332 330 329 327 326 325 324 325 326 327 323 316 310 309 310 311 312 313 314 314 316 318 320 322 324 325 327 328 328 327 326 324 325 326 323 317 312 311 310 310 311 311 311 312 311 311 309 310 316 323 327 331 331 332 331 332 332 331 330 330 329 326 322 319 317 313 312 311 314 319 320 322 322 317 313 310 310 310 309 309 309
344 341 334 332 332 330 328 326 323 322 322 322 325 324 321 314 309 310 310 311 312 313 314 314 314 316 318 319 321 323 324 326 326 325 324 324 325 325 324 318 313 311 311 311 311 311 311 312 312 312 311 312 317 322 325 328 329 330 330 331 332 332 332 331 332 329 322 318 314 311 312 311 311 315 317 317 318 316 312 309 310 309 309 309 309
344 338 332 332 331 330 328 324 321 321 320 321 323 321 318 313 309 310 310 310 312 313 314 314 314 314 316 317 318 321 323 324 324 325 325 325 325 324 322 319 314 312 312 311 311 311 312 312 312 312 313 313 317 321 323 327 330 331 331 332 332 332 332 332 333 327 318 314 312 310 310 310 310 311 312 312 312 312 311 310 310 310 310 309 310
343 335 332 333 331 330 327 323 321 320 320 320 320 318 315 312 310 310 310 310 311 312 313 314 314 314 315 315 316 318 320 322 323 324 325 325 325 323 320 318 315 313 312 312 311 311 311 312 312 312 313 315 318 320 324 329 331 331 330 330 331 331 331 330 329 322 314 312 311 311 311 311 311 311 311 310 310 310 310 311 310 310 310 310 310
343 335 333 333 331 330 326 323 320 319 319 318 317 315 314 312 311 310 310 310 310 311 312 313 314 314 314 314 315 316 317 320 321 322 323 324 324 322 318 317 315 314 314 312 311 311 311 311 311 311 312 314 317 319 323 328 329 329 330 331 332 332 332 330 326 319 315 314 311 311 312 311 312 311 311 311 311 310 311 311 310 311 311 310 311
343 337 334 333 332 329 326 322 320 319 317 317 315 314 314 314 312 311 310 310 310 311 312 312 313 313 314 314 314 315 316 317 319 320 321 322 324 321 318 316 315 315 314 313 312 311 311 311 311 311 311 313 316 319 321 324 328 331 333 333 333 333 332 329 324 319 318 316 313 312 312 312 312 312 312 313 312 311 313 312 311 311 311 311 312
340 336 334 334 333 330 326 322 320 318 316 315 314 314 314 314 313 312 311 310 310 310 311 312 312 313 313 314 314 314 315 316 317 318 319 320 322 321 319 317 316 315 315 314 313 312 312 310 311 311 312 313 315 318 321 323 328 331 332 332 332 332 331 329 325 323 321 318 316 314 314 313 312 313 313 314 314 312 313 312 312 311 311 311 312
337 334 334 334 333 331 326 323 320 318 315 314 314 314 314 314 314 313 312 311 311 310 311 311 312 312 313 313 313 314 314 315 316 316 317 319 320 321 319 319 318 317 316 315 314 313 313 311 311 313 313 314 316 317 320 322 326 328 332 333 334 334 332 330 329 326 322 319 317 317 317 316 315 314 312 313 313 312 312 312 312 311 311 311 311
336 334 335 334 333 331 326 323 321 319 316 315 315 314 314 314 314 314 313 313 312 311 311 311 311 311 312 312 313 313 313 313 315 315 316 317 319 321 320 320 320 319 317 316 316 315 314 314 313 314 314 315 316 317 319 322 324 327 331 333 333 333 331 330 330 329 325 321 319 318 318 318 317 316 314 313 312 312 312 312 311 311 311 310 310
338 336 336 335 334 331 327 323 322 320 317 316 316 316 316 315 315 314 314 314 313 313 312 312 312 312 312 312 312 312 312 313 313 314 315 315 318 321 321 320 320 320 319 318 318 317 316 316 317 317 317 318 318 319 320 322 324 325 328 330 332 332 330 330 330 329 328 325 322 320 319 319 319 318 316 314 312 311 311 311 311 310 311 310 310
340 338 338 336 334 333 330 326 324 322 319 319 319 318 317 315 315 314 313 313 313 313 313 313 313 313 313 313 313 313 314 314 314 314 314 315 316 318 320 320 320 320 320 320 320 319 319 319 320 321 321 321 321 321 322 322 322 322 324 326 331 331 330 332 330 328 329 327 324 321 320 320 319 319 318 316 313 312 311 311 310 310 310 310 310
341 340 340 338 336 335 332 329 327 325 323 321 321 320 318 316 316 315 315 315 316 315 315 316 316 317 317 316 315 315 315 316 319 320 318 318 319 318 317 318 319 319 319 321 321 321 322 322 321 322 322 322 321 321 321 321 323 324 323 326 333 333 331 332 331 330 329 326 324 321 321 321 320 320 319 318 315 315 314 313 310 309 309 309 309
342 342 341 340 338 336 334 332 331 330 329 327 325 321 318 319 321 320 322 324 325 324 323 324 324 324 323 322 321 322 323 323 326 327 325 325 324 323 321 319 318 319 318 319 321 323 324 325 324 322 322 322 320 323 325 325 328 330 327 327 333 334 331 331 331 330 329 326 325 322 321 322 321 321 321 320 318 317 317 315 314 312 311 310 310
342 342 341 341 340 338 337 336 335 335 335 333 330 324 320 325 328 328 330 332 332 332 332 332 332 333 331 330 329 331 331 330 331 331 330 329 327 327 328 324 319 318 318 318 319 321 324 326 325 324 323 322 323 327 329 328 331 335 332 328 331 334 333 332 332 331 329 328 326 323 322 323 322 322 321 321 321 320 319 318 317 316 315 313 313
342 342 342 341 341 340 339 338 337 337 337 336 334 328 325 330 334 333 334 335 336 336 336 336 335 335 335 334 334 335 334 334 334 333 332 330 328 329 330 329 323 317 316 317 318 318 321 324 325 326 324 325 330 332 332 332 333 334 335 332 331 335 334 333 333 332 331 330 328 324 323 324 323 323 322 322 322 321 321 321 320 318 317 316 316
343 343 342 341 340 340 340 340 338 338 339 338 336 334 331 333 335 334 336 336 337 337 337 337 336 335 335 336 336 336 336 335 336 335 333 331 330 330 330 332 329 322 317 316 317 316 317 319 321 323 324 329 335 335 335 335 334 333 335 334 332 334 334 332 332 331 331 331 329 325 324 324 324 324 323 323 323 323 322 322 321 320 319 318 317
344 343 342 341 341 340 340 340 339 339 339 338 337 337 335 335 335 335 336 336 336 336 336 336 336 336 336 336 336 336 336 336 336 335 334 333 333 333 333 333 332 329 325 321 319 318 317 315 317 319 320 329 335 335 335 336 335 332 333 334 331 333 334 332 332 332 332 330 328 326 327 327 326 325 324 323 323 322 322 322 322 321 320 320 319
344 343 342 341 341 340 339 339 339 339 339 339 338 338 337 336 336 336 336 336 336 337 336 337 337 337 336 336 336 336 336 335 335 334 333 333 334 335 335 335 334 331 329 327 326 326 324 319 316 318 319 325 331 333 335 336 335 332 332 333 331 332 333 332 333 332 331 328 326 327 329 329 328 326 324 323 323 323 322 322 322 322 321 321 320
344 343 342 342 341 340 340 339 340 339 339 339 339 339 338 337 337 336 336 336 337 336 336 336 337 336 336 336 336 336 336 335 334 334 334 334 334 335 335 335 334 332 330 329 330 330 329 327 326 326 326 328 331 332 335 336 335 332 332 333 331 332 333 332 331 329 328 326 327 328 328 330 328 325 324 323 323 322 322 322 322 322 320 320 320
343 343 342 342 341 341 340 340 340 339 338 339 339 339 338 338 337 337 337 336 335 336 336 336 336 337 336 336 336 336 335 334 334 334 334 334 334 335 335 335 334 333 332 331 331 331 330 331 333 333 333 333 334 333 333 335 335 331 331 331 332 332 332 331 328 326 327 328 328 328 327 328 326 324 323 323 322 322 322 322 321 320 318 320 321
342 342 342 341 341 341 341 340 340 339 338 339 339 339 340 339 338 337 337 337 336 336 336 336 336 336 336 335 334 333 334 333 333 332 332 333 334 335 335 334 334 334 333 332 332 332 330 331 334 334 334 334 335 333 332 334 335 332 330 331 331 332 332 331 329 329 329 330 329 328 328 328 326 325 324 323 323 322 322 321 319 318 318 320 321
341 341 342 342 341 342 341 340 340 340 339 339 339 340 340 339 338 338 337 337 336 335 335 336 336 336 335 335 333 333 333 332 331 331 331 332 333 334 334 334 333 333 333 333 333 334 332 331 333 334 334 334 334 333 332 334 334 332 330 331 332 332 332 333 332 332 331 330 329 328 329 329 329 327 324 323 323 322 321 319 317 315 316 318 318
341 342 342 342 342 342 341 340 340 340 340 339 339 339 339 339 339 339 338 337 335 334 334 335 336 336 335 334 334 334 333 333 332 332 332 332 332 332 333 334 333 331 332 333 334 334 333 332 332 333 333 334 334 334 333 333 334 332 330 331 332 331 331 332 333 333 332 331 329 329 329 330 331 329 326 326 326 323 320 318 316 313 312 314 317
342 343 342 342 343 342 342 341 341 340 340 340 339 339 339 339 339 338 337 336 336 335 335 336 336 335 335 334 334 334 333 332 332 332 333 332 332 331 332 333 332 331 332 333 333 335 335 333 332 332 333 333 334 333 333 333 333 332 331 331 332 330 330 332 333 332 332 331 329 329 330 330 331 331 330 329 328 324 321 318 316 313 312 314 316
341 341 341 342 342 342 342 342 341 341 341 341 340 339 339 339 338 337 337 336 336 336 335 335 335 334 334 334 334 334 333 332 331 331 332 332 332 331 331 332 332 332 333 333 333 334 334 334 333 332 332 333 333 332 330 332 334 333 331 331 331 331 330 331 332 332 332 331 330 330 331 331 330 331 331 329 329 326 322 319 317 315 313 313 313
339 339 339 339 340 340 341 342 341 341 340 340 340 339 339 339 338 337 336 336 334 334 334 333 334 334 334 334 334 334 333 332 331 331 332 332 332 331 331 331 332 332 333 333 332 332 333 332 332 332 332 332 331 331 328 329 332 333 333 332 332 332 330 331 332 332 333 332 331 331 332 332 330 330 331 330 329 327 324 321 318 318 318 316 316
337 337 338 337 337 337 339 341 338 337 338 338 339 339 338 338 337 336 335 335 334 334 334 334 335 335 334 334 333 333 333 333 332 332 333 333 332 332 331 330 330 331 332 331 330 330 330 330 330 331 332 331 330 330 330 329 329 331 333 332 332 332 331 330 331 332 332 333 333 332 332 333 331 330 331 330 329 329 327 324 320 320 321 321 322
337 337 338 337 336 333 335 337 336 336 337 337 337 337 337 336 336 335 335 335 336 336 336 335 335 335 335 334 333 334 334 334 333 333 333 333 333 332 331 330 330 330 330 330 330 329 329 329 329 329 330 330 330 329 330 330 329 330 331 331 332 332 331 331 331 331 331 332 333 333 332 332 332 331 331 330 329 330 329 327 325 323 323 324 324
338 337 337 338 337 333 332 334 335 336 336 336 336 337 337 335 333 334 334 335 336 335 336 336 336 336 335 335 334 334 334 334 334 333 333 333 333 332 331 330 330 330 330 330 330 329 329 329 329 329 329 329 329 329 330 331 330 330 330 330 330 331 331 330 331 330 330 331 332 332 332 332 331 330 330 330 329 330 329 329 328 327 326 326 325
340 339 339 340 339 338 336 335 334 335 335 335 335 336 337 335 333 335 335 335 336 336 337 337 337 337 336 336 335 335 334 334 333 333 332 332 332 332 331 330 330 329 329 329 330 330 330 329 329 330 329 328 328 328 329 330 330 330 330 330 330 330 331 330 331 331 329 330 332 332 332 332 331 330 330 330 329 330 330 329 329 328 328 327 326
341 340 340 340 340 339 338 336 334 332 334 334 332 333 334 334 334 336 336 336 337 337 337 337 337 337 336 336 336 336 335 335 334 333 333 331 330 330 331 330 330 330 330 330 329 330 330 330 329 329 330 329 327 327 327 328 329 329 329 330 330 330 331 331 332 331 329 330 332 332 333 332 331 331 331 330 330 330 330 329 328 328 328 328 327
341 340 340 339 339 339 337 336 335 333 334 335 333 332 332 332 333 334 334 335 336 337 337 336 335 334 334 335 335 335 335 335 334 334 333 332 330 329 329 329 329 330 331 330 330 329 329 329 330 329 330 329 328 326 327 327 328 329 329 330 330 330 331 331 331 331 329 329 331 332 332 332 331 331 331 331 330 330 330 329 328 328 328 328 328
341 340 340 340 340 339 337 336 336 335 336 336 335 335 333 333 333 333 334 335 335 336 336 337 336 335 335 336 335 335 335 335 334 332 331 332 332 330 329 328 328 328 330 330 330 329 329 329 329 329 330 329 329 328 328 328 328 329 329 329 330 330 331 331 330 331 330 329 331 332 332 331 331 330 331 331 330 330 330 329 328 329 329 328 328
341 340 341 340 340 339 338 337 337 337 337 337 337 337 336 336 336 335 335 335 335 335 336 337 336 336 337 337 336 335 335 334 333 332 331 332 333 332 331 329 328 328 328 329 329 329 329 329 328 327 328 329 330 329 328 327 327 328 329 328 329 329 330 331 331 331 331 330 331 331 331 331 331 331 331 331 330 330 330 329 329 329 329 328 328
340 340 340 340 340 339 339 339 339 338 339 339 339 339 338 337 337 337 336 335 335 335 335 335 335 335 336 336 336 335 335 333 332 333 333 333 334 333 333 331 330 329 328 328 329 329 329 329 328 327 327 329 331 331 328 326 326 326 328 328 328 329 330 331 330 331 332 331 330 331 332 331 331 331 331 331 330 329 329 329 329 329 329 329 328
340 339 339 339 339 339 339 339 339 339 338 338 339 339 338 338 338 337 337 335 336 336 336 335 335 335 335 336 336 335 334 333 333 333 334 334 333 333 332 331 330 331 330 330 329 330 330 330 330 330 329 330 332 331 329 327 325 325 327 329 329 330 330 330 330 330 330 330 330 331 332 331 331 331 331 331 330 329 329 329 329 329 329 329 328
340 339 338 338 339 339 339 339 338 339 338 338 338 338 338 338 337 337 336 335 334 334 334 334 334 334 334 335 335 334 334 333 333 334 334 334 333 333 333 331 331 331 331 331 331 331 331 331 332 331 330 330 331 330 330 328 326 325 326 329 329 330 330 330 331 331 330 330 330 330 331 331 331 331 331 330 330 329 329 329 329 329 329 328 328
338 337 336 336 337 337 337 337 337 336 336 336 336 336 335 335 334 333 333 333 332 332 332 332 332 331 331 331 332 332 332 332 333 333 333 333 333 333 333 332 332 333 333 332 331 331 331 332 332 331 331 330 331 330 329 328 328 329 328 329 329 330 331 331 331 331 330 329 329 329 330 330 330 330 331 330 329 329 329 329 329 329 329 328 327
337 335 335 335 335 336 335 335 335 334 334 334 333 333 333 333 332 331 332 332 332 332 332 332 332 331 330 330 330 331 331 331 332 332 332 332 332 333 332 333 333 333 333 333 333 332 332 332 332 331 331 331 331 329 328 328 329 331 330 328 329 330 330 331 331 330 329 329 329 329 329 330 330 330 330 330 329 329 329 329 329 329 329 328 327
Wind_Speed
19 20 20 19 19 20 19 18 17 17 16 15 14 13 13 13 13 13 14 13 14 14 15 16 16 18 21 21 21 21 20 18 17 16 17 17 16 17 17 17 16 15 14 14 13 12 12 12 12 11 11 11 11 12 13 13 13 14 15 17 18 19 20 21 21 20 19 19 20 21 20 20 20 19 19 18 18 18 18 18 18 19 19 19 19
21 21 20 20 19 19 19 18 17 16 16 14 13 12 13 13 13 13 14 13 14 14 15 16 16 17 20 20 20 19 18 17 17 18 18 18 18 17 17 16 16 15 14 14 13 12 12 11 11 10 10 10 11 12 12 12 11 13 18 19 19 20 20 21 20 20 19 18 18 20 20 19 19 19 18 18 17 16 16 16 16 17 18 18 18
19 21 21 20 19 19 18 17 17 16 15 13 13 12 12 12 12 13 13 14 14 15 15 16 15 17 18 19 18 18 17 17 18 18 18 18 18 17 17 16 15 14 13 12 11 11 10 9 9 9 8 9 10 11 12 11 11 17 23 23 22 23 23 22 20 18 17 17 16 17 19 18 18 17 16 16 16 15 15 15 15 16 16 16 16
17 21 21 20 19 19 18 17 16 16 15 13 13 12 12 12 12 13 14 14 14 15 15 16 15 16 18 18 17 16 16 17 18 18 18 18 17 16 16 15 14 13 12 10 9 9 9 9 8 8 7 8 9 10 12 11 13 21 25 24 25 24 22 21 19 16 14 15 14 13 14 14 15 15 14 14 14 14 14 14 14 15 15 14 15
17 21 21 21 20 18 18 17 16 15 14 13 12 12 11 11 12 13 14 14 15 15 15 16 16 16 17 18 17 16 16 16 17 17 17 17 17 16 15 15 13 11 9 9 9 9 9 9 8 8 7 7 8 9 11 11 16 23 25 24 24 22 20 18 17 16 13 11 11 9 9 8 10 13 12 12 12 13 13 13 13 14 13 13 14
18 21 21 21 20 19 18 17 15 15 13 13 12 11 11 11 12 13 14 14 14 14 15 15 16 17 17 17 17 16 16 16 16 16 16 16 16 15 14 13 12 10 8 9 10 10 9 9 9 9 8 8 9 10 12 13 20 25 25 24 23 20 17 15 12 12 11 8 7 7 7 4 7 12 11 11 12 12 12 12 12 13 12 12 13
16 20 21 21 21 20 18 17 15 14 13 12 12 11 11 10 11 13 14 14 14 14 15 15 16 16 17 17 16 16 15 15 15 15 15 15 15 14 13 11 11 10 9 9 10 10 10 10 11 11 11 11 12 14 15 18 24 26 25 22 20 18 16 14 10 9 10 6 4 5 5 1 7 11 12 11 11 12 12 11 11 11 11 10 11
16 21 21 21 21 20 18 17 15 14 13 12 12 11 10 10 11 13 14 14 13 13 14 15 16 16 16 17 16 16 15 14 14 14 14 13 13 13 12 10 10 9 9 10 10 11 11 11 12 14 14 14 15 17 20 23 27 26 23 20 18 18 17 16 11 9 9 6 3 5 4 7 10 13 12 11 11 11 11 10 10 10 9 9 10
19 23 22 21 20 20 18 16 15 14 13 12 11 10 10 10 11 13 14 14 13 13 14 15 16 15 16 16 16 15 15 14 14 13 12 12 12 12 10 9 9 9 9 10 11 11 12 13 14 15 16 17 18 20 24 26 27 25 23 21 20 19 17 15 12 9 6 4 2 6 8 9 13 14 12 10 10 10 9 8 7 8 9 10 11
22 23 21 20 20 20 18 16 15 13 12 12 11 10 10 10 12 14 14 13 13 12 14 15 15 15 15 15 15 15 15 14 13 13 12 12 11 10 9 9 9 9 10 11 11 11 12 13 14 16 17 18 20 22 25 27 27 25 24 22 21 19 15 12 11 9 4 1 3 6 8 7 12 13 10 8 8 8 7 6 5 7 9 11 12
19 20 20 19 20 19 18 16 15 13 12 12 11 11 10 11 12 14 14 13 13 12 13 14 15 15 15 14 14 14 14 13 13 12 12 11 11 10 9 9 9 10 10 11 11 11 12 13 14 16 17 19 21 25 27 28 26 25 23 21 19 17 15 12 11 9 4 1 3 5 6 7 10 11 10 9 9 8 7 7 7 8 10 11 12
15 16 19 19 19 19 17 16 15 14 13 12 12 11 11 11 12 14 14 13 12 11 12 13 14 14 14 13 13 13 13 13 12 12 11 11 11 9 8 9 10 10 10 10 11 11 12 13 14 15 16 19 23 26 27 27 26 24 22 21 19 17 15 12 9 7 2 0 3 5 7 9 10 11 11 10 10 9 9 10 10 10 10 11 11
13 13 18 19 18 18 17 16 15 15 14 13 13 12 11 11 12 13 14 14 12 11 11 12 13 13 13 13 13 13 12 12 12 11 11 11 10 9 8 8 9 9 10 10 11 12 12 13 14 14 16 19 22 24 25 26 25 24 22 20 18 16 13 10 6 4 3 4 5 6 7 9 11 12 11 10 10 10 10 10 10 10 10 10 10
12 14 19 19 18 17 16 16 16 16 15 14 13 12 11 11 12 13 14 14 13 11 10 11 12 12 12 12 12 12 12 12 11 10 10 10 10 8 8 8 8 9 9 10 11 11 12 13 14 14 16 18 20 22 24 26 25 24 22 20 17 14 11 8 4 4 5 6 6 6 7 9 11 11 11 10 10 10 9 9 9 9 9 9 9
13 18 21 19 17 17 16 16 16 16 15 14 13 12 12 12 12 13 14 13 13 11 10 10 10 11 11 11 11 11 11 11 10 9 9 9 9 8 7 7 8 8 8 9 10 11 12 12 13 13 15 17 19 21 24 25 24 22 20 19 17 13 9 7 3 3 5 6 7 8 8 9 10 10 10 10 9 9 9 9 9 8 8 8 8
13 19 22 19 18 18 17 17 16 16 16 15 14 14 14 14 14 15 14 14 13 12 10 9 9 9 10 10 10 10 10 10 9 8 8 8 8 7 7 7 7 8 7 8 9 10 11 11 12 12 14 16 18 20 23 23 22 21 19 18 16 12 8 5 4 4 7 8 7 8 7 9 9 8 9 8 8 8 8 8 7 7 7 7 7
13 19 21 20 19 18 17 16 16 16 16 16 16 16 16 15 16 16 15 14 13 11 10 9 8 8 8 9 8 8 8 8 8 8 8 8 8 7 6 7 7 7 7 7 8 8 9 10 11 11 12 15 16 18 19 21 21 21 19 18 16 12 7 5 5 6 8 7 6 6 6 7 7 7 7 7 6 6 7 6 6 6 6 6 6
13 19 20 18 18 17 17 16 16 16 17 17 18 17 16 16 15 15 14 13 12 11 10 9 8 7 7 7 7 7 7 7 6 7 7 8 8 7 7 6 7 7 7 7 7 7 8 9 10 10 11 13 14 15 17 19 20 19 18 16 15 11 7 4 4 6 7 6 5 4 3 4 4 5 6 6 6 5 6 6 5 5 5 5 5
16 19 19 16 15 16 16 17 17 17 17 18 18 17 16 15 14 13 13 12 11 11 10 10 9 8 7 6 6 6 5 5 5 5 6 7 7 7 7 7 7 7 7 7 6 6 7 8 9 10 11 12 14 15 16 17 18 18 17 16 13 9 6 4 4 4 5 5 5 4 2 1 1 3 4 5 5 4 4 4 4 4 4 3 3
21 21 19 17 15 14 16 16 17 17 17 17 16 16 15 14 13 12 12 12 12 11 10 10 9 8 7 6 5 4 4 3 3 4 4 6 6 7 8 8 7 7 8 7 7 7 7 8 9 10 11 11 12 14 15 16 17 16 15 14 12 9 4 2 1 2 4 4 3 4 4 3 2 1 2 2 2 2 2 2 2 2 2 2 1
20 21 19 18 15 14 14 15 16 16 16 16 15 15 15 14 13 12 12 12 12 11 10 10 9 8 8 7 6 4 3 2 3 3 4 5 6 7 8 8 8 8 8 8 7 7 7 8 9 10 11 10 11 12 13 14 13 12 13 13 12 8 4 1 2 2 3 2 3 3 3 4 5 3 2 2 2 2 2 2 2 2 2 1 1
18 20 19 18 16 15 14 14 15 14 14 14 14 14 14 14 13 12 11 11 11 11 10 9 8 8 8 8 7 6 4 4 3 4 5 5 6 8 9 9 9 9 9 9 9 8 8 9 9 10 11 11 11 11 11 10 9 9 10 11 9 5 3 1 4 4 2 4 5 4 4 5 5 6 5 4 3 3 3 3 2 3 3 2 2
19 19 18 19 18 16 15 14 13 13 13 13 13 12 12 12 12 12 11 11 10 10 9 8 8 7 7 8 8 8 7 7 5 5 6 5 5 8 10 11 11 10 10 10 10 10 9 10 10 10 11 11 11 10 9 8 6 5 5 6 7 3 1 3 7 6 6 7 7 6 5 6 6 7 7 4 4 4 3 3 3 3 4 3 3
20 18 17 19 18 17 16 15 13 12 13 13 12 11 11 11 11 11 11 10 10 9 8 8 9 8 8 8 8 8 9 8 6 7 7 5 4 5 8 11 12 12 12 11 11 11 11 11 11 10 10 11 11 11 9 7 4 3 2 6 8 2 3 5 8 9 9 8 8 7 5 6 6 7 7 5 5 4 3 3 2 3 4 4 4
20 17 17 19 18 17 16 15 14 12 11 12 12 11 12 12 12 12 11 9 9 9 8 8 8 8 8 7 7 6 7 8 7 8 8 6 5 5 7 10 13 13 13 12 12 13 12 11 11 11 10 10 11 9 7 7 3 4 2 4 7 3 5 7 9 10 10 9 9 9 6 5 6 6 6 5 5 5 4 3 2 3 4 4 4
19 18 17 17 17 16 15 14 13 13 12 11 11 11 13 12 11 11 10 8 8 8 8 7 7 6 7 6 6 6 6 8 8 9 8 8 9 9 9 9 11 14 14 14 14 14 14 13 12 11 11 10 10 9 8 6 3 1 3 1 5 5 6 8 9 11 11 10 10 10 6 5 5 5 5 5 5 5 5 4 4 4 4 4 4
18 17 17 17 17 16 14 14 13 14 13 11 10 11 12 10 10 9 8 7 7 6 6 7 7 6 7 7 7 7 7 8 9 10 10 10 11 11 11 9 9 12 14 14 15 15 15 14 13 12 11 10 10 8 7 5 1 2 5 2 3 6 8 9 10 12 13 12 12 9 5 5 5 4 5 5 5 5 5 4 4 4 4 4 3
16 17 17 16 16 16 15 14 14 13 12 10 10 10 10 10 9 8 7 7 6 6 6 7 7 6 6 7 7 8 8 8 10 11 11 11 12 12 12 11 10 10 12 13 14 15 16 16 15 14 13 12 11 10 8 6 3 4 8 8 5 7 9 10 11 13 14 14 12 9 6 5 5 5 4 5 5 5 5 4 4 4 4 4 3
16 16 17 16 15 15 15 14 13 12 11 10 10 10 10 8 7 6 7 7 6 6 7 7 6 5 5 7 8 9 9 10 11 13 13 13 14 14 14 14 13 12 12 13 12 13 14 15 16 16 16 14 12 12 11 8 8 9 10 13 10 9 10 11 13 14 15 15 12 8 7 6 6 6 5 4 4 4 4 4 3 3 4 4 3
16 16 16 15 14 14 14 14 13 12 11 10 10 10 8 6 6 6 7 7 6 6 7 7 7 6 6 8 10 11 11 11 12 14 14 15 16 17 16 16 14 13 14 14 12 11 11 13 14 15 16 16 14 14 11 10 13 12 10 13 12 11 13 15 16 16 16 16 13 9 8 8 7 6 5 4 4 4 4 3 3 3 4 4 3
15 15 15 14 13 14 14 13 13 12 11 10 10 9 7 6 6 6 7 7 7 7 8 7 7 7 7 10 12 13 12 13 14 16 16 17 17 18 19 18 17 15 16 16 14 12 11 12 12 12 14 14 14 15 14 13 16 15 11 13 14 13 15 17 18 18 18 16 13 10 9 8 7 5 4 3 3 3 3 4 3 3 3 4 3
15 14 14 14 13 13 12 11 11 11 11 10 10 8 6 6 7 6 7 7 8 8 8 7 8 9 10 10 12 13 13 13 14 16 18 18 18 19 20 20 19 16 17 17 17 16 14 15 14 13 15 15 16 17 17 17 17 17 15 13 15 15 16 18 19 19 18 16 13 10 9 7 5 3 2 2 2 3 3 4 4 3 2 2 2
16 15 15 14 13 13 11 10 11 10 10 10 9 8 7 7 7 7 7 8 8 8 8 8 9 11 12 12 12 12 13 13 15 17 19 19 20 20 21 21 20 18 18 19 19 19 17 17 17 16 18 18 19 19 19 20 19 18 17 13 16 17 16 18 19 18 17 16 14 11 8 4 3 2 1 1 1 2 3 4 4 3 2 1 2
16 16 15 14 13 12 10 10 10 10 10 10 9 8 8 9 8 7 7 7 7 8 8 7 9 10 12 13 12 11 13 14 15 17 19 20 21 22 22 21 20 19 18 19 19 20 18 19 19 19 21 22 21 20 19 21 21 20 18 14 16 18 18 19 19 18 18 17 14 11 6 2 1 1 1 1 1 2 3 3 3 3 2 1 2
15 15 13 13 12 10 9 9 9 9 9 9 9 9 8 8 8 7 6 7 7 8 9 8 9 10 12 12 12 12 13 13 14 16 18 19 20 22 23 22 21 19 20 20 21 21 20 20 21 21 23 24 23 22 20 21 22 21 20 16 17 20 20 22 22 19 18 17 14 10 6 3 2 1 3 2 0 1 2 3 3 2 2 1 2
16 15 13 12 11 9 8 8 8 8 9 9 9 8 7 7 8 7 7 8 9 9 10 10 10 11 12 12 12 13 13 13 14 15 18 19 19 20 21 22 22 21 22 22 23 23 21 22 23 23 24 25 25 23 21 21 22 22 22 20 21 23 21 19 20 20 19 16 14 10 6 4 3 3 3 3 1 1 2 2 3 3 1 1 3
14 13 12 12 11 10 10 9 9 8 8 8 7 7 7 7 7 8 8 9 9 9 10 11 11 11 12 13 14 14 14 14 15 15 16 18 19 19 20 21 22 23 23 24 24 24 23 24 24 25 25 25 25 24 22 22 23 22 23 24 23 24 21 16 15 18 19 17 13 10 7 5 5 5 5 4 2 1 1 2 2 3 3 4 5
13 12 11 11 11 10 10 10 9 9 9 8 7 6 6 5 5 5 7 8 9 10 10 11 11 11 12 13 15 15 14 14 15 15 14 15 16 18 18 19 21 24 25 26 25 25 26 26 26 26 26 25 24 24 23 23 24 24 24 25 24 23 22 18 15 16 17 16 13 10 8 7 7 6 6 5 3 3 1 1 2 3 4 6 6
14 14 13 11 10 10 10 10 8 8 7 6 6 5 4 5 5 5 7 8 10 10 11 11 10 10 11 12 14 14 13 13 14 14 14 14 15 16 17 17 20 24 27 27 27 26 25 26 26 26 26 25 24 24 24 24 25 25 25 25 25 25 23 20 17 16 16 15 14 12 10 9 8 8 7 6 5 4 2 1 1 1 3 5 5
14 15 14 11 10 11 13 12 10 8 7 7 6 6 7 8 9 9 10 10 10 10 10 11 11 11 11 12 13 13 13 13 13 13 14 14 14 15 16 17 19 22 26 27 26 25 24 24 24 25 26 26 25 25 26 26 25 25 25 24 24 25 25 20 17 18 17 16 16 14 12 11 10 10 9 7 6 5 4 3 2 3 2 3 4
13 13 13 11 9 11 12 12 11 10 10 10 9 10 10 11 12 12 13 12 11 11 10 10 11 11 10 10 12 12 13 14 13 13 13 13 14 15 16 17 18 20 22 24 25 24 24 24 24 24 25 26 27 27 27 27 26 26 25 24 23 24 25 22 18 19 19 17 17 15 13 13 12 12 11 9 7 6 6 4 4 4 4 3 3
13 12 13 12 10 9 10 10 9 10 11 10 10 12 13 13 12 13 13 13 10 8 9 9 10 11 11 11 11 12 13 13 12 12 12 12 14 15 15 16 17 18 20 21 23 24 25 25 25 25 25 26 27 27 27 27 26 27 26 24 23 23 24 24 21 20 19 18 17 16 15 13 13 13 13 12 9 8 8 6 5 5 6 4 4
12 11 12 13 11 10 8 8 7 8 9 9 9 10 11 12 13 13 14 13 12 9 8 9 11 12 12 13 13 13 13 13 12 12 13 13 13 14 15 16 18 19 19 20 22 24 26 26 26 26 25 25 26 27 27 27 26 26 26 24 21 20 21 23 23 20 20 20 18 17 16 14 14 14 14 14 11 10 10 8 6 7 7 6 5
12 11 11 11 10 9 6 7 7 6 6 6 6 5 5 7 9 9 10 11 12 11 8 7 10 12 13 14 15 14 14 14 12 12 14 15 15 16 16 17 18 19 20 21 22 24 26 27 27 27 26 26 26 26 25 26 26 26 24 22 19 17 19 22 23 22 20 20 19 18 16 15 15 15 15 15 13 11 11 9 7 8 8 7 7
13 12 11 10 9 7 4 5 5 4 3 4 4 3 3 3 3 2 3 4 6 6 5 5 7 9 12 14 15 14 13 14 13 12 15 17 18 19 18 18 18 19 20 21 22 24 25 26 26 27 28 29 28 26 24 24 25 26 25 22 17 16 19 22 21 20 20 21 20 18 17 17 17 16 15 16 14 12 11 10 9 9 9 9 9
15 14 13 11 9 6 5 4 3 2 1 1 1 1 1 1 1 1 1 1 0 1 4 7 9 10 12 14 17 15 12 14 16 15 17 19 19 20 20 20 20 20 21 22 22 24 26 26 26 27 28 29 30 29 27 25 24 24 26 26 22 19 19 20 18 17 18 21 21 19 19 19 18 18 17 16 16 14 12 11 11 11 11 11 10
16 16 14 12 10 8 7 6 3 2 1 1 2 3 3 2 2 3 3 3 2 2 4 7 9 11 13 14 17 18 13 15 18 19 19 19 19 20 21 21 22 23 23 23 24 25 26 27 26 27 27 28 31 32 30 28 26 25 25 27 27 24 21 19 18 17 18 20 22 20 20 21 20 20 18 17 18 16 14 13 12 13 12 12 12
14 14 13 12 10 9 9 8 7 5 3 3 4 4 4 5 5 5 5 5 5 6 7 9 10 12 13 13 16 19 17 16 19 20 21 20 20 21 21 21 23 23 23 24 26 26 27 28 29 29 27 29 32 32 31 30 29 27 25 26 28 28 25 22 19 18 17 18 22 23 22 22 22 22 20 19 19 18 16 14 14 14 13 13 13
11 11 11 10 10 10 8 7 5 5 4 4 5 5 6 7 7 7 7 7 7 8 9 11 12 13 14 14 15 17 18 18 18 20 21 21 22 23 22 22 23 23 24 25 25 27 29 30 30 29 29 30 31 29 29 30 29 27 26 26 28 29 27 22 20 19 17 15 18 22 23 23 23 23 21 20 20 19 18 16 15 15 14 14 14
8 7 7 6 6 5 3 2 1 2 2 3 5 6 6 7 7 7 7 7 8 9 10 10 10 10 11 12 12 14 17 18 19 20 21 21 22 23 25 25 25 25 26 25 25 26 28 30 31 31 30 30 30 28 28 28 28 28 27 26 27 29 27 23 22 21 18 16 16 18 21 23 23 24 23 21 20 20 19 17 17 17 16 16 16
6 4 4 5 6 5 4 2 2 3 3 4 5 4 4 4 4 5 5 6 7 9 10 11 11 12 12 13 14 15 16 18 19 21 22 23 23 23 25 26 27 28 28 27 27 28 29 31 32 31 29 28 28 29 29 29 29 28 27 26 27 29 29 29 27 23 20 18 17 16 17 19 20 22 22 21 21 21 20 18 19 19 18 18 17
Wind_Direction
166 162 160 153 145 138 135 134 133 130 125 120 114 108 100 98 101 99 93 83 74 71 73 84 97 104 109 108 108 108 106 105 103 101 98 98 97 96 95 94 95 96 95 93 92 90 89 89 90 93 96 98 98 99 99 96 87 79 83 89 88 84 79 77 78 79 83 87 91 92 90 89 87 86 85 83 81 80 80 79 79 79 77 76 75
164 162 160 153 147 138 136 136 135 132 127 123 117 110 101 100 104 102 97 87 77 74 75 85 98 105 110 110 109 108 106 105 102 100 97 97 95 94 94 93 93 92 91 90 89 89 88 87 89 92 97 101 104 104 104 100 89 84 89 89 86 86 85 84 81 79 79 81 87 92 92 89 86 86 85 83 80 79 78 78 78 78 77 77 76
165 163 159 151 147 139 137 137 137 134 131 127 119 113 103 101 106 106 99 89 81 76 78 88 99 106 110 110 110 108 106 104 102 100 99 97 95 93 93 92 91 90 89 89 90 91 91 89 90 93 100 106 111 114 113 106 94 93 93 90 87 86 87 88 85 84 83 82 82 87 90 89 85 82 81 81 80 79 77 75 76 77 78 79 79
164 165 159 150 145 139 138 138 139 136 134 130 121 115 105 103 109 109 102 91 83 80 81 90 100 107 109 110 111 110 106 103 102 101 101 98 96 95 93 92 90 89 88 89 89 88 89 88 85 87 94 102 117 125 123 115 101 100 97 92 87 82 81 80 78 77 82 88 85 83 83 83 84 80 78 78 79 79 78 77 76 77 78 81 83
159 165 159 150 144 139 139 138 140 139 137 132 123 118 109 105 112 111 104 93 86 84 85 92 102 108 110 111 112 112 106 103 103 102 101 99 97 95 93 92 90 89 88 84 85 85 83 82 81 82 84 93 113 127 129 120 108 105 99 92 86 81 77 71 68 64 66 77 77 75 60 57 81 82 78 78 80 81 80 80 79 79 79 83 86
155 165 161 151 144 139 139 139 141 141 139 133 126 122 112 107 114 114 107 97 90 89 89 95 102 109 113 113 114 112 107 104 103 102 101 99 98 96 94 93 91 91 87 83 86 87 84 82 81 83 86 94 108 122 125 115 110 107 98 92 89 85 79 71 65 67 73 64 52 41 12 17 93 90 81 80 82 85 85 82 81 81 80 82 85
158 165 163 153 143 139 139 140 143 142 139 134 130 124 115 109 115 118 111 102 96 94 94 97 103 111 114 115 116 113 107 104 103 102 101 100 99 97 96 95 94 94 86 83 87 86 85 83 82 85 90 97 106 115 116 112 112 107 98 94 91 85 77 71 71 94 109 99 54 6 348 80 112 100 92 89 90 90 90 88 85 81 77 79 82
164 166 161 152 143 139 139 142 143 142 140 136 133 127 117 112 118 123 116 108 101 100 99 100 105 111 115 117 118 114 109 105 103 102 101 100 98 97 96 96 97 95 86 83 85 84 83 83 83 86 92 98 105 110 111 112 113 108 103 98 91 85 80 80 87 116 126 112 70 13 53 110 108 104 103 102 102 98 95 95 85 72 69 77 81
165 164 157 150 142 138 139 141 143 141 139 137 134 129 120 116 124 127 121 114 107 104 104 105 108 111 115 118 119 116 112 108 106 104 101 98 96 95 96 96 95 91 87 86 85 84 85 86 86 89 94 101 107 110 112 115 116 113 108 103 97 93 92 92 94 111 116 89 30 22 56 90 103 105 109 114 112 107 101 93 76 63 67 74 77
159 158 152 147 141 137 138 141 142 140 138 137 135 132 125 123 131 132 127 120 113 109 108 110 112 113 115 118 120 118 115 113 110 107 102 98 94 93 95 95 92 91 90 88 87 88 89 90 92 94 98 105 111 114 116 117 116 113 109 106 104 102 103 106 106 115 125 40 342 9 31 74 104 105 109 117 116 113 108 96 79 73 72 71 72
145 149 150 146 140 138 138 140 141 140 139 138 138 136 131 132 136 136 132 126 120 114 112 114 115 117 119 118 119 120 119 118 114 111 107 104 99 96 96 95 93 93 92 91 91 91 93 95 98 100 102 107 114 117 116 114 112 110 107 105 103 104 109 113 115 122 151 258 340 9 39 88 105 104 105 105 107 109 106 101 92 83 77 75 74
134 139 149 147 140 138 138 139 140 141 142 141 142 140 137 139 139 139 137 131 127 121 117 117 119 121 123 122 120 121 121 119 118 116 115 112 108 104 99 97 97 97 97 97 97 96 96 99 102 106 108 113 118 119 117 114 110 108 104 102 102 106 112 112 111 115 134 82 43 40 66 97 100 100 103 98 99 99 96 94 90 86 82 81 79
136 134 148 150 140 138 137 139 142 143 146 146 145 142 141 142 140 141 139 135 133 128 123 120 122 125 127 126 125 124 123 121 121 121 120 120 118 114 107 103 103 104 105 105 104 102 101 102 105 108 113 120 124 122 118 115 112 109 107 105 104 105 110 113 106 80 47 50 55 51 64 92 97 96 98 96 96 94 94 91 89 88 84 84 82
130 137 149 151 143 140 139 142 145 147 149 148 147 144 143 142 139 142 141 140 138 135 130 126 125 128 131 130 129 128 128 127 127 127 124 125 125 122 118 114 113 114 115 114 112 109 107 107 107 109 117 125 126 123 118 116 113 111 108 105 104 106 109 111 97 13 31 49 60 71 74 86 93 93 93 93 94 93 95 95 94 90 86 87 84
124 143 152 155 152 147 145 146 148 149 150 148 148 146 144 141 141 144 145 144 142 142 140 134 131 132 135 132 131 130 130 132 134 137 134 130 130 131 129 125 124 124 124 123 120 117 115 115 114 113 119 126 127 123 118 116 113 110 108 105 105 106 104 97 72 4 53 75 81 88 86 86 90 91 91 91 92 93 94 96 95 91 89 89 86
131 150 157 160 161 154 150 149 150 151 151 151 149 147 147 144 145 148 149 149 147 149 149 145 140 137 138 136 132 131 131 134 137 143 144 139 139 143 140 136 134 132 133 131 128 125 124 123 123 121 122 127 128 124 120 117 115 113 112 111 111 111 110 95 68 51 75 79 82 88 90 92 94 93 91 92 95 96 96 96 95 93 91 88 87
142 160 162 162 160 153 151 150 152 153 153 152 151 150 150 149 149 151 152 151 151 155 158 154 149 145 145 142 137 135 135 137 142 146 147 145 150 157 152 149 147 143 144 140 137 135 134 133 131 130 128 129 130 128 124 121 120 119 117 116 117 119 120 102 68 57 66 64 69 85 91 92 96 101 100 98 100 101 101 101 102 100 94 90 89
154 164 165 162 158 152 151 152 155 154 155 153 152 153 152 153 150 149 151 152 155 157 162 161 157 157 152 147 144 142 141 143 146 147 146 149 159 167 165 163 160 157 158 152 147 146 143 140 137 136 135 133 134 133 130 127 125 123 121 120 118 121 129 119 70 48 46 43 45 59 83 95 100 107 108 109 111 113 112 111 113 111 105 102 97
155 163 164 163 162 156 154 154 157 156 156 154 153 153 151 150 146 148 152 153 156 157 162 164 165 166 159 156 156 154 153 153 153 150 145 151 163 173 177 177 174 173 172 165 160 159 153 148 142 138 138 137 137 137 135 130 126 124 122 121 122 130 150 143 93 55 31 24 31 28 18 60 124 125 120 121 124 128 125 121 125 124 120 114 106
152 163 164 165 167 161 159 158 160 157 155 154 153 152 148 147 148 153 155 155 156 157 162 164 167 167 164 168 170 169 165 169 177 174 159 159 172 182 190 189 187 188 186 177 171 171 166 156 148 144 142 140 140 140 137 133 130 127 124 124 127 140 162 149 77 31 25 16 22 19 353 341 324 202 164 169 164 156 150 151 151 146 144 141 130
154 165 165 165 164 161 166 164 162 158 156 155 154 152 150 151 153 156 156 156 155 158 163 162 163 161 161 166 170 170 167 194 211 216 204 183 183 192 200 201 199 199 197 190 183 182 177 164 155 151 148 144 142 141 140 136 133 128 129 129 128 146 178 214 296 336 38 26 356 345 331 327 319 303 255 239 229 210 198 195 203 207 198 188 221
158 168 167 163 162 166 171 170 166 160 159 158 156 157 157 156 156 159 158 157 157 161 164 162 161 159 158 161 166 170 179 198 202 215 224 210 195 198 205 209 210 209 205 198 194 190 185 176 162 157 153 148 145 144 143 137 132 126 131 135 137 164 194 265 289 307 351 354 342 317 308 312 309 305 288 270 251 235 233 239 242 241 242 238 249
162 170 164 161 169 173 171 173 170 163 163 160 159 161 160 155 155 160 158 158 161 166 168 164 162 160 162 167 177 185 196 202 203 218 221 212 200 205 212 213 214 215 213 206 202 200 194 185 173 168 161 155 151 150 148 137 125 118 120 130 136 171 227 276 284 304 329 339 342 323 308 311 310 307 297 280 261 253 257 266 265 262 264 262 261
164 172 161 160 173 176 172 173 168 163 164 160 161 161 157 150 150 154 155 158 161 165 167 165 165 170 175 178 189 199 208 204 208 232 232 227 217 218 225 224 221 218 219 214 208 207 202 194 184 178 171 165 159 154 151 133 86 15 94 122 121 144 258 268 284 304 318 327 340 333 311 311 313 307 300 282 272 273 284 293 284 278 281 285 279
165 173 164 160 171 178 176 171 165 165 163 161 164 159 151 148 150 152 153 160 166 171 170 172 178 185 187 183 192 207 215 207 206 229 243 253 256 246 240 237 231 223 221 221 216 213 208 203 195 188 184 179 172 169 170 147 81 337 274 136 132 169 259 276 288 298 307 318 332 330 310 312 314 307 307 289 286 292 296 305 301 298 297 299 298
166 173 170 164 168 175 176 171 167 169 169 167 166 158 153 153 158 160 164 174 180 181 177 187 201 202 196 189 202 216 220 215 213 224 239 256 262 259 253 246 241 233 224 222 222 220 216 211 205 200 197 195 199 206 215 193 111 328 267 115 141 188 252 274 287 297 305 312 322 326 308 309 314 306 315 304 302 304 300 305 301 303 301 299 303
167 170 172 168 167 171 172 173 173 176 174 166 165 160 160 163 167 173 186 190 185 186 188 202 213 211 204 203 216 226 225 224 222 227 239 252 258 259 258 254 248 241 232 225 225 226 223 221 216 210 206 206 208 208 223 229 140 225 251 272 152 198 247 268 283 294 296 299 311 322 308 304 312 307 315 314 315 314 306 307 300 297 296 296 301
167 170 174 171 168 171 170 175 179 183 178 165 165 165 167 170 174 188 200 197 188 192 201 209 217 216 217 219 228 235 234 232 229 235 245 254 258 259 260 260 255 247 241 233 230 230 228 229 228 221 213 205 200 195 205 219 219 229 242 252 227 210 240 260 271 278 282 288 299 309 303 301 305 305 314 316 320 325 320 313 306 299 292 294 300
168 170 175 174 169 171 172 177 184 186 180 170 170 170 172 175 180 198 206 209 203 206 218 223 228 227 234 243 248 250 246 242 240 244 250 255 259 259 258 259 260 256 250 242 235 237 237 234 233 231 219 205 206 207 202 212 224 221 235 249 237 216 233 247 255 262 269 279 289 295 294 293 296 304 315 327 335 339 334 323 317 309 293 290 290
168 169 173 174 168 171 175 179 185 186 182 175 176 177 178 183 191 203 215 226 223 227 235 231 237 242 251 263 262 257 254 254 253 254 254 255 256 256 254 254 255 256 257 252 240 239 246 242 234 233 222 210 222 228 218 230 229 215 230 248 235 221 229 235 243 254 262 273 283 288 288 285 286 301 319 335 352 350 336 327 319 312 298 287 275
164 166 168 172 170 172 174 176 183 185 184 180 181 184 186 193 203 213 223 234 239 248 255 249 250 256 258 262 264 262 259 258 259 258 257 256 255 254 253 249 244 245 253 256 250 243 239 239 234 233 230 225 237 239 230 240 230 212 219 244 243 234 234 237 243 252 260 268 277 283 289 288 279 287 320 336 352 355 338 332 325 318 303 287 271
154 160 163 167 168 169 169 172 179 180 183 185 190 192 192 199 207 220 232 245 256 260 265 269 269 270 267 259 264 268 264 257 257 260 259 258 257 257 256 248 240 239 246 249 249 247 237 231 229 232 235 236 246 245 236 236 228 212 213 235 248 244 241 243 245 250 256 263 269 278 290 293 276 271 320 341 355 1 341 339 340 343 320 280 264
144 149 152 156 161 164 167 172 173 174 178 186 196 194 192 205 213 221 233 245 258 261 262 269 271 273 271 264 265 270 268 262 261 263 262 261 257 256 255 248 241 238 241 243 243 245 239 227 227 232 232 233 241 246 239 232 226 217 214 227 247 249 243 240 242 248 254 260 266 274 286 287 262 264 288 334 354 8 354 353 355 343 314 249 233
136 139 144 148 153 155 161 170 170 174 178 183 192 192 199 213 219 223 234 245 259 268 267 266 267 270 271 269 268 265 263 264 266 265 264 262 259 256 253 248 245 240 238 241 240 241 236 225 225 231 231 232 236 241 240 231 226 223 217 222 244 248 238 233 240 248 253 260 265 266 266 256 256 259 181 144 9 22 11 4 6 342 304 247 224
130 131 136 140 144 145 152 163 169 176 180 184 190 197 210 223 231 233 243 257 267 275 277 276 274 272 270 269 268 268 266 266 269 271 269 265 260 257 253 249 247 243 240 242 240 238 234 227 227 230 232 233 235 238 239 232 226 225 221 222 234 235 227 228 237 244 249 256 260 256 248 246 253 213 180 181 38 39 27 17 17 5 318 268 192
134 132 134 135 137 140 145 155 163 173 180 187 192 199 214 231 244 246 250 259 263 267 269 272 273 270 270 270 271 273 273 273 272 270 268 265 260 258 255 249 244 243 242 241 242 241 237 232 231 232 234 235 236 236 237 233 229 227 224 225 233 235 228 224 229 236 245 250 253 253 247 247 248 227 213 207 160 77 39 37 31 32 22 108 140
139 141 142 142 144 145 146 150 155 160 168 179 185 196 212 223 240 252 256 262 264 265 265 266 270 270 272 275 273 269 266 270 272 265 259 256 255 253 250 249 245 244 241 240 244 246 244 242 239 237 237 239 239 238 236 232 232 233 230 228 237 242 238 234 226 225 238 247 248 251 248 241 245 235 219 209 177 146 72 54 50 59 82 101 116
139 143 145 148 151 156 156 153 156 160 165 175 180 188 206 215 232 249 254 260 263 265 266 267 270 269 271 273 269 265 260 263 269 267 259 252 250 247 245 248 247 245 243 243 245 247 247 247 244 241 241 242 242 239 236 232 233 236 236 234 239 243 239 245 241 221 229 239 238 241 242 239 241 233 219 212 193 175 142 81 78 80 97 102 106
136 138 138 140 142 155 167 166 167 169 171 176 178 182 205 220 228 236 240 249 257 261 265 267 268 267 269 269 266 265 265 264 266 265 263 260 255 250 247 246 246 245 245 246 245 245 246 246 244 240 240 243 242 239 235 234 235 236 239 239 242 246 240 242 249 231 222 224 224 228 231 236 241 236 228 212 193 192 187 162 162 138 115 108 108
130 133 135 136 134 147 166 173 173 176 181 188 197 201 211 216 216 219 221 226 235 241 250 259 263 264 266 269 267 266 266 266 267 264 261 260 258 253 250 249 248 245 245 246 245 243 243 244 244 242 241 241 240 240 237 236 238 240 244 242 244 250 242 239 246 237 227 217 215 222 224 228 235 237 238 219 199 207 202 194 209 227 198 131 123
129 134 133 133 131 136 153 166 170 177 187 196 205 208 213 219 219 219 218 221 229 236 249 261 267 268 266 267 268 265 263 264 266 267 265 261 259 255 251 252 251 248 248 247 244 243 243 242 244 246 244 241 239 240 239 237 238 240 245 246 247 250 243 238 238 235 236 224 212 218 221 222 231 238 243 230 216 218 210 209 218 225 224 184 149
134 136 134 138 142 139 147 161 166 174 187 198 205 206 211 216 219 222 221 223 229 243 262 270 275 276 273 272 274 272 268 266 265 269 273 270 265 260 256 255 256 257 256 250 245 243 242 241 242 244 244 242 239 238 238 238 239 240 244 248 249 250 245 238 230 227 235 229 214 217 221 222 229 237 242 235 227 223 213 218 221 216 223 202 167
139 143 143 147 154 155 156 156 159 172 186 199 206 206 207 207 211 219 220 219 220 227 247 262 269 273 276 277 278 278 276 276 277 277 281 281 276 270 264 261 260 260 259 255 249 244 243 243 242 243 242 242 239 236 236 237 239 240 242 245 246 246 240 230 224 224 232 230 218 216 219 222 227 232 239 236 232 224 214 222 221 207 219 209 177
139 142 138 138 142 149 153 150 159 172 180 195 209 216 217 211 213 217 217 216 217 225 244 269 271 271 276 276 273 277 279 281 287 290 287 285 281 275 271 267 264 262 261 258 253 248 246 245 245 244 242 240 237 235 236 235 236 237 237 238 239 235 228 223 223 224 227 228 219 214 220 225 226 228 235 237 234 223 214 222 222 207 214 208 187
139 138 134 141 148 150 149 143 148 154 165 187 197 208 214 204 191 176 187 194 200 221 259 291 284 275 278 280 279 281 283 284 288 289 285 279 276 276 275 274 271 268 266 263 257 252 248 247 247 246 244 241 238 236 237 235 233 234 235 234 229 226 225 223 223 222 224 227 220 215 221 229 228 227 232 235 232 219 211 221 223 213 213 209 200
147 146 143 149 156 153 144 137 129 124 142 189 225 282 334 39 37 37 6 16 83 261 287 298 297 292 289 289 290 288 284 287 287 283 282 279 278 281 282 281 280 275 273 271 266 257 250 248 248 248 246 243 240 239 237 234 233 234 238 238 235 235 231 220 213 215 219 226 226 220 222 228 229 229 230 230 226 218 213 220 221 216 215 210 206
157 157 157 158 161 158 151 154 156 142 116 289 286 299 313 314 307 306 308 324 335 309 286 286 290 292 293 294 297 298 295 291 289 288 287 284 280 281 283 285 283 278 274 272 270 264 257 253 251 250 249 245 241 239 238 236 233 233 237 240 237 237 236 224 213 209 208 216 223 223 224 227 227 228 229 228 225 220 217 219 219 217 217 210 206
165 163 165 167 171 172 171 172 174 176 189 220 239 258 268 267 267 272 283 297 305 296 283 279 277 277 283 288 297 306 307 297 293 293 289 284 279 276 277 279 278 274 272 270 269 268 263 257 254 251 250 248 242 238 238 238 234 231 233 237 235 232 234 230 220 212 211 214 216 218 223 225 227 228 228 226 225 223 221 220 220 220 216 210 210
175 170 173 182 188 190 186 180 185 199 217 238 248 259 270 280 289 292 294 300 301 299 297 294 287 280 283 288 296 307 310 305 303 301 295 290 285 278 275 275 273 269 268 268 267 266 263 258 254 252 251 249 245 239 238 239 236 233 233 235 233 228 226 224 216 210 214 220 217 218 221 221 223 226 225 224 224 222 221 221 224 225 219 214 219
181 179 179 181 181 178 149 123 278 252 235 262 274 280 290 304 317 325 329 336 336 333 331 328 323 315 311 311 312 316 314 310 310 309 306 302 296 289 283 278 271 266 265 264 265 265 263 259 256 255 254 251 246 240 238 239 238 235 234 235 232 224 215 210 209 205 207 219 225 223 222 221 223 224 223 223 223 222 221 223 226 227 223 219 219
178 178 158 132 122 110 89 113 223 247 243 262 276 285 303 314 329 351 358 358 354 342 337 338 338 334 330 328 325 321 317 312 312 312 311 308 305 300 294 287 279 270 263 259 262 264 262 261 258 257 257 253 246 240 238 240 238 233 232 233 232 226 219 215 212 206 205 216 225 224 222 224 228 228 225 222 222 222 219 222 226 224 222 219 213